QIANFAN-49 (62250 NORAD) Tracking and Keplerian Element Data

This shows tracking and keplerian element data for the satellite.

Feedback or suggestion? Click here.




ElementValue
Catalog62250
NameQIANFAN-49
Epoch Orbit2555
Epoch Day34.81051751
Epoch Year2025
RAAN73.1873
Inclination88.9884
Eccentricity0.0015642
Argument of Perigee30.2002
Mean Anonmoly330.0086
Mean Motion14.18379997
Decay Rate4.33E-06
L11 62250U 24232P 25034.81051751 .00000433 00000+0 20298-3 0 9993
L22 62250 88.9884 73.1873 0015642 30.2002 330.0086 14.18379997 25551



Live tracking and technical data element details for QIANFAN-49 (NORAD 62250). QIANFAN-49 can be tracked NOW for your location showing map with azimuth and elevation plus other details from your city location.







IsCatalogInMostPopularTable: catalog: 62250, numindb: 13
Update: records affected: 1



GetName: 62250 QIANFAN-49

Hit Count: updated at: Sat, 24 May 2025 16:27:49 GMT